W6DRZ Weather Reports


time (UTC)temp
C
wind
direction
speed
KPH
gust
KPH
rain 1hr
cm
rain 24hr
cm
rain mn
cm
humidity
%
barometer
mb
20260507023111 15 286 14.5 22.5 0.00 0.00 0.00 75 1017.6
20260507022954 16 287 14.5 25.7 0.00 0.00 0.00 74 1017.6
20260507022108 16 266 14.5 25.7 0.00 0.00 0.00 73 1017.7
20260507021608 16 290 12.9 22.5 0.00 0.00 0.00 72 1017.7
20260507021109 17 269 9.7 19.3 0.00 0.00 0.00 71 1017.7
20260507020951 17 272 11.3 22.5 0.00 0.00 0.00 71 1017.8
20260507020112 17 279 11.3 22.5 0.00 0.00 0.00 69 1018.0
20260507015733 17 304 11.3 22.5 0.00 0.00 0.00 69 1017.8
20260507014614 18 282 11.3 22.5 0.00 0.00 0.00 67 1017.8
20260507014113 18 300 11.3 20.9 0.00 0.00 0.00 66 1017.7
20260507013611 18 299 9.7 20.9 0.00 0.00 0.00 67 1017.8
20260507013114 18 303 12.9 27.4 0.00 0.00 0.00 67 1017.9
20260507012616 18 298 16.1 27.4 0.00 0.00 0.00 66 1017.8
20260507012111 19 272 12.9 22.5 0.00 0.00 0.00 66 1017.8
20260507011609 19 248 12.9 25.7 0.00 0.00 0.00 67 1017.7
20260507011109 19 267 12.9 27.4 0.00 0.00 0.00 66 1017.7
20260507010608 19 275 12.9 27.4 0.00 0.00 0.00 67 1017.9
20260507010444 20 300 11.3 27.4 0.00 0.00 0.00 66 1017.8
20260507005603 20 266 11.3 24.1 0.00 0.00 0.00 66 1017.8
20260507005102 20 260 12.9 25.7 0.00 0.00 0.00 67 1017.7
20260507004602 20 302 12.9 25.7 0.00 0.00 0.00 66 1017.8
20260507004102 20 253 11.3 27.4 0.00 0.00 0.00 66 1017.8
20260507003603 20 309 9.7 27.4 0.00 0.00 0.00 65 1017.9
20260507003056 20 263 9.7 22.5 0.00 0.00 0.00 66 1017.8
20260507002556 20 331 11.3 22.5 0.00 0.00 0.00 65 1017.8
20260507002054 20 268 12.9 24.1 0.00 0.00 0.00 65 1017.8
20260507001603 20 286 14.5 24.1 0.00 0.00 0.00 65 1017.8
20260507001054 20 289 11.3 22.5 0.00 0.00 0.00 65 1017.9
20260507000601 21 298 11.3 20.9 0.00 0.00 0.00 64 1017.9
20260507000058 21 300 11.3 20.9 0.00 0.00 0.00 65 1017.8
20260506235933 21 282 9.7 20.9 0.00 0.00 0.00 64 1017.9
20260506235058 21 317 9.7 19.3 0.00 0.00 0.00 63 1017.9
20260506234603 21 329 8.0 19.3 0.00 0.00 0.00 64 1017.8
20260506234438 21 269 8.0 17.7 0.00 0.00 0.00 65 1017.8
20260506233552 21 186 9.7 22.5 0.00 0.00 0.00 65 1017.7
20260506233051 21 331 11.3 22.5 0.00 0.00 0.00 65 1017.9
20260506232555 21 273 9.7 20.9 0.00 0.00 0.00 64 1017.8
20260506232220 21 293 11.3 27.4 0.00 0.00 0.00 65 1018.0
20260506231059 21 298 11.3 20.9 0.00 0.00 0.00 65 1018.1
20260506230602 21 273 9.7 20.9 0.00 0.00 0.00 63 1018.1
20260506230055 21 284 11.3 25.7 0.00 0.00 0.00 65 1018.0
20260506225923 21 325 14.5 25.7 0.00 0.00 0.00 64 1018.1
20260506225059 21 286 12.9 25.7 0.00 0.00 0.00 64 1018.3
20260506224925 21 279 11.3 22.5 0.00 0.00 0.00 63 1018.3
20260506224052 22 220 11.3 20.9 0.00 0.00 0.00 64 1018.3
20260506223917 22 269 11.3 27.4 0.00 0.00 0.00 61 1018.3
20260506223052 22 271 8.0 27.4 0.00 0.00 0.00 60 1018.3
20260506222555 22 218 4.8 14.5 0.00 0.00 0.00 59 1018.3
20260506222053 21 11 4.8 14.5 0.00 0.00 0.00 60 1018.4
20260506221548 21 46 4.8 16.1 0.00 0.00 0.00 62 1018.5
20260506221048 21 266 6.4 16.1 0.00 0.00 0.00 59 1018.8
20260506220554 22 77 4.8 16.1 0.00 0.00 0.00 60 1018.8
20260506220047 21 355 3.2 12.9 0.00 0.00 0.00 60 1018.8
20260506215545 22 296 4.8 17.7 0.00 0.00 0.00 60 1018.8
20260506215051 21 160 6.4 17.7 0.00 0.00 0.00 59 1018.8
20260506214922 21 44 4.8 11.3 0.00 0.00 0.00 59 1018.9
20260506214042 21 0 3.2 11.3 0.00 0.00 0.00 60 1018.9
20260506213542 21 41 3.2 8.0 0.00 0.00 0.00 60 1018.9
20260506213046 21 12 3.2 11.3 0.00 0.00 0.00 57 1018.9
20260506212543 21 293 4.8 12.9 0.00 0.00 0.00 58 1019.0
20260506212042 21 274 6.4 16.1 0.00 0.00 0.00 59 1018.9
20260506211544 21 33 4.8 16.1 0.00 0.00 0.00 57 1019.1
20260506211043 21 36 3.2 12.9 0.00 0.00 0.00 58 1019.1
20260506210542 21 348 3.2 12.9 0.00 0.00 0.00 59 1019.0
20260506210435 21 11 3.2 11.3 0.00 0.00 0.00 58 1019.1
20260506205542 21 51 4.8 14.5 0.00 0.00 0.00 56 1019.3
20260506205041 21 36 4.8 14.5 0.00 0.00 0.00 59 1019.2
20260506204542 21 30 4.8 14.5 0.00 0.00 0.00 59 1019.3
20260506204043 20 342 3.2 14.5 0.00 0.00 0.00 59 1019.3
20260506203543 21 55 3.2 14.5 0.00 0.00 0.00 59 1019.4
20260506203042 21 44 3.2 9.7 0.00 0.00 0.00 60 1019.4
20260506202544 21 30 3.2 11.3 0.00 0.00 0.00 60 1019.4
20260506202043 21 280 3.2 11.3 0.00 0.00 0.00 61 1019.5
20260506201926 21 280 1.6 11.3 0.00 0.00 0.00 62 1019.6
20260506201045 20 113 3.2 12.9 0.00 0.00 0.00 65 1019.6
20260506200543 20 283 3.2 12.9 0.00 0.00 0.00 62 1019.6
20260506200043 20 42 3.2 11.3 0.00 0.00 0.00 63 1019.6
20260506195546 20 355 4.8 14.5 0.00 0.00 0.00 66 1019.7
20260506195427 20 48 4.8 14.5 0.00 0.00 0.00 64 1019.8
20260506194543 19 38 4.8 12.9 0.00 0.00 0.00 64 1019.9
20260506194044 18 14 4.8 12.9 0.00 0.00 0.00 67 1019.9
20260506193927 18 202 4.8 17.7 0.00 0.00 0.00 66 1019.9
20260506193046 20 0 3.2 17.7 0.00 0.00 0.00 65 1020.0
20260506192928 18 313 3.2 14.5 0.00 0.00 0.00 66 1020.0
20260506192041 19 85 3.2 8.0 0.00 0.00 0.00 65 1020.0
20260506191543 18 286 6.4 16.1 0.00 0.00 0.00 69 1020.0
20260506191043 17 28 6.4 16.1 0.00 0.00 0.00 69 1020.3
20260506190544 18 38 3.2 16.1 0.00 0.00 0.00 68 1020.2
20260506190043 19 80 1.6 11.3 0.00 0.00 0.00 68 1020.2
20260506185937 18 76 3.2 11.3 0.00 0.00 0.00 69 1020.3
20260506185044 18 168 3.2 14.5 0.00 0.00 0.00 72 1020.3
20260506184945 17 31 6.4 14.5 0.00 0.00 0.00 71 1020.3
20260506184042 17 5 4.8 14.5 0.00 0.00 0.00 69 1020.4
20260506183543 18 36 1.6 11.3 0.00 0.00 0.00 69 1020.3
20260506183041 17 21 3.2 6.4 0.00 0.00 0.00 69 1020.4
20260506182537 18 54 3.2 6.4 0.00 0.00 0.00 69 1020.3
20260506182035 18 102 1.6 6.4 0.00 0.00 0.00 68 1020.4
20260506181535 18 255 1.6 6.4 0.00 0.00 0.00 68 1020.3
20260506181033 17 24 3.2 8.0 0.00 0.00 0.00 71 1020.4
20260506180538 17 41 1.6 8.0 0.00 0.00 0.00 71 1020.4
20260506180027 17 42 3.2 8.0 0.00 0.00 0.00 71 1020.4
20260506175527 17 32 4.8 9.7 0.00 0.00 0.00 72 1020.3
20260506175027 17 36 3.2 9.7 0.00 0.00 0.00 71 1020.4
20260506174524 17 27 1.6 4.8 0.00 0.00 0.00 70 1020.3
20260506174033 17 123 1.6 6.4 0.00 0.00 0.00 71 1020.4
20260506173524 17 92 1.6 8.0 0.00 0.00 0.00 72 1020.4
20260506173024 16 183 1.6 8.0 0.00 0.00 0.00 71 1020.4
20260506172523 16 86 1.6 4.8 0.00 0.00 0.00 72 1020.5
20260506172408 16 86 1.6 4.8 0.00 0.00 0.00 71 1020.4
20260506171519 16 124 1.6 4.8 0.00 0.00 0.00 73 1020.4
20260506171019 16 172 1.6 4.8 0.00 0.00 0.00 72 1020.4
20260506170516 16 97 1.6 3.2 0.00 0.00 0.00 73 1020.5
20260506170015 16 185 0.0 3.2 0.00 0.00 0.00 75 1020.5
20260506165515 15 185 0.0 3.2 0.00 0.00 0.00 77 1020.5
20260506165403 15 185 0.0 3.2 0.00 0.00 0.00 79 1020.4
20260506164638 14 185 1.6 4.8 0.00 0.00 0.00 78 1020.5
20260506164548 15 185 0.0 3.2 0.00 0.00 0.00 80 1020.4
20260506163015 14 185 1.6 3.2 0.00 0.00 0.00 80 1020.5
20260506162922 14 185 0.0 3.2 0.00 0.00 0.00 81 1020.5
20260506162012 13 185 0.0 1.6 0.00 0.00 0.00 81 1020.5
20260506161507 13 185 0.0 1.6 0.00 0.00 0.00 82 1020.5
20260506161005 13 185 1.6 4.8 0.00 0.00 0.00 82 1020.5
20260506160501 13 185 1.6 4.8 0.00 0.00 0.00 83 1020.4
20260506155957 13 185 1.6 4.8 0.00 0.00 0.00 84 1020.5
20260506155847 13 185 0.0 4.8 0.00 0.00 0.00 84 1020.5
20260506154955 13 163 0.0 3.2 0.00 0.00 0.00 85 1020.5
20260506154454 13 163 1.6 6.4 0.00 0.00 0.00 86 1020.4
20260506153952 13 163 0.0 6.4 0.00 0.00 0.00 86 1020.4
20260506153456 13 156 0.0 3.2 0.00 0.00 0.00 87 1020.3
20260506152959 13 252 0.0 3.2 0.00 0.00 0.00 87 1020.4
20260506152453 13 252 0.0 3.2 0.00 0.00 0.00 88 1020.4
20260506151954 13 252 0.0 3.2 0.00 0.00 0.00 88 1020.4
20260506151824 13 294 0.0 1.6 0.00 0.00 0.00 89 1020.4
20260506150950 12 294 0.0 1.6 0.00 0.00 0.00 89 1020.4
20260506150448 12 294 0.0 1.6 0.00 0.00 0.00 89 1020.3
20260506145949 12 294 0.0 3.2 0.00 0.00 0.00 90 1020.3
20260506145829 12 286 0.0 3.2 0.00 0.00 0.00 90 1020.3
20260506144946 12 286 0.0 3.2 0.00 0.00 0.00 90 1020.3
20260506144822 12 286 0.0 3.2 0.00 0.00 0.00 90 1020.3
20260506143951 12 286 1.6 3.2 0.00 0.00 0.00 90 1020.3
20260506143453 12 286 1.6 4.8 0.00 0.00 0.00 91 1020.3
20260506143314 12 286 1.6 8.0 0.00 0.00 0.00 91 1020.3
20260506142437 12 299 3.2 8.0 0.00 0.00 0.00 91 1020.1
20260506141934 11 313 3.2 8.0 0.00 0.00 0.00 91 1020.1
20260506141434 11 299 3.2 8.0 0.00 0.00 0.00 91 1020.1
20260506140938 11 289 3.2 6.4 0.00 0.00 0.00 91 1020.1
20260506140817 11 291 3.2 6.4 0.00 0.00 0.00 91 1020.0
20260506135940 11 289 3.2 6.4 0.00 0.00 0.00 91 1019.9
20260506135441 11 289 3.2 6.4 0.00 0.00 0.00 91 1019.9
20260506135259 11 289 3.2 6.4 0.00 0.00 0.00 91 1019.9
20260506134431 11 289 1.6 4.8 0.00 0.00 0.00 91 1019.8
20260506134302 11 289 1.6 3.2 0.00 0.00 0.00 91 1019.8
20260506133432 11 289 1.6 3.2 0.00 0.00 0.00 91 1019.7
20260506132934 11 289 1.6 3.2 0.00 0.00 0.00 91 1019.7
20260506132434 11 289 1.6 4.8 0.00 0.00 0.00 91 1019.6
20260506131929 11 289 3.2 6.4 0.00 0.00 0.00 90 1019.6
20260506131813 11 289 3.2 6.4 0.00 0.00 0.00 91 1019.5
20260506130933 11 289 0.0 6.4 0.00 0.00 0.00 90 1019.6
20260506130814 11 289 0.0 1.6 0.00 0.00 0.00 90 1019.6
20260506125932 11 289 0.0 1.6 0.00 0.00 0.00 90 1019.6
20260506125429 11 289 0.0 0.0 0.00 0.00 0.00 90 1019.6
20260506124931 11 289 0.0 3.2 0.00 0.00 0.00 90 1019.5
20260506124431 11 289 1.6 6.4 0.00 0.00 0.00 90 1019.4
20260506123930 11 289 3.2 6.4 0.00 0.00 0.00 90 1019.4
20260506123430 11 289 1.6 6.4 0.00 0.00 0.00 90 1019.4
20260506122930 11 289 1.6 4.8 0.00 0.00 0.00 90 1019.3
20260506122429 11 289 1.6 4.8 0.00 0.00 0.00 90 1019.4
20260506121930 11 289 1.6 4.8 0.00 0.00 0.00 90 1019.3
20260506121428 11 289 1.6 4.8 0.00 0.00 0.00 90 1019.4
20260506120930 11 289 0.0 3.2 0.00 0.00 0.00 90 1019.4
20260506120429 10 289 0.0 3.2 0.00 0.00 0.00 90 1019.2
20260506115922 10 289 1.6 4.8 0.00 0.00 0.00 90 1019.3
20260506115421 10 289 1.6 4.8 0.00 0.00 0.00 89 1019.1
20260506114922 10 289 3.2 4.8 0.00 0.00 0.00 89 1019.2
20260506114422 10 309 3.2 6.4 0.00 0.00 0.00 89 1019.1
20260506114003 10 281 4.8 6.4 0.00 0.03 0.00 89 1019.0
20260506113927 10 309 4.8 6.4 0.00 0.03 0.00 89 1019.0
20260506112415 10 271 3.2 6.4 0.00 0.03 0.00 88 1019.0
20260506111918 11 298 3.2 6.4 0.00 0.03 0.00 88 1018.9
20260506111417 11 296 3.2 6.4 0.00 0.03 0.00 88 1019.1
20260506110916 11 296 3.2 9.7 0.00 0.03 0.00 88 1018.9
20260506110745 11 296 3.2 9.7 0.00 0.03 0.00 88 1018.8
20260506105916 11 304 1.6 6.4 0.00 0.03 0.00 88 1018.7
20260506105413 11 277 1.6 4.8 0.00 0.03 0.00 88 1018.7
20260506104909 11 277 3.2 4.8 0.00 0.03 0.00 88 1018.5
20260506104410 11 277 3.2 4.8 0.00 0.03 0.00 88 1018.7
20260506103909 11 277 3.2 4.8 0.00 0.03 0.00 87 1018.5
20260506103736 11 277 3.2 6.4 0.00 0.05 0.00 87 1018.5
20260506102913 11 277 4.8 9.7 0.00 0.05 0.00 87 1018.5
20260506102410 11 269 4.8 9.7 0.00 0.05 0.00 87 1018.7
20260506101910 11 288 4.8 9.7 0.00 0.05 0.00 86 1018.5
20260506101733 11 287 4.8 6.4 0.00 0.05 0.00 86 1018.5
20260506101218 11 287 4.8 6.4 0.00 0.05 0.00 86 1018.5
20260506100409 12 259 3.2 6.4 0.00 0.05 0.00 86 1018.7
20260506095906 12 305 1.6 3.2 0.00 0.05 0.00 85 1018.4
20260506095719 12 305 1.6 4.8 0.00 0.05 0.00 86 1018.5
20260506094907 12 305 1.6 4.8 0.00 0.05 0.00 86 1018.5
20260506094407 12 305 1.6 4.8 0.00 0.05 0.00 85 1018.7
20260506094223 12 305 1.6 3.2 0.00 0.05 0.00 85 1018.7
20260506093406 12 300 0.0 3.2 0.00 0.05 0.00 85 1018.7
20260506092905 12 300 0.0 1.6 0.00 0.05 0.00 85 1018.5
20260506092403 12 300 0.0 3.2 0.00 0.05 0.00 85 1018.5
20260506091902 12 300 1.6 3.2 0.00 0.05 0.00 85 1018.4
20260506091404 12 300 1.6 6.4 0.00 0.05 0.00 85 1018.5
20260506090902 12 300 3.2 6.4 0.00 0.05 0.00 85 1018.5
20260506090714 12 300 3.2 9.7 0.00 0.05 0.00 85 1018.5
20260506085901 12 292 3.2 9.7 0.00 0.05 0.00 85 1018.5
20260506085402 12 281 3.2 9.7 0.00 0.05 0.00 85 1018.5
20260506084901 12 281 3.2 9.7 0.00 0.05 0.00 85 1018.4
20260506084403 12 292 3.2 6.4 0.00 0.05 0.00 85 1018.5
20260506083902 12 232 1.6 6.4 0.00 0.05 0.00 85 1018.5
20260506083403 12 266 3.2 9.7 0.00 0.05 0.00 85 1018.5
20260506083045 12 313 4.8 11.3 0.00 0.05 0.00 85 1018.7
20260506081927 12 264 3.2 9.7 0.00 0.05 0.00 85 1018.5
20260506081402 13 250 4.8 12.9 0.00 0.05 0.00 84 1018.7
20260506080903 13 248 4.8 12.9 0.00 0.05 0.00 84 1018.7
20260506080402 13 269 3.2 12.9 0.00 0.05 0.00 84 1018.7
20260506073403 12 267 1.6 4.8 0.00 0.05 0.00 83 1018.4
20260506072902 12 267 1.6 6.4 0.00 0.05 0.00 82 1018.4
20260506072359 12 267 3.2 9.7 0.00 0.05 0.00 82 1018.4
20260506071855 12 267 3.2 9.7 0.00 0.05 0.00 82 1018.4
20260506071356 12 267 3.2 9.7 0.00 0.05 0.00 82 1018.4
20260506070854 12 267 3.2 9.7 0.00 0.05 0.00 82 1018.3
20260506070357 12 284 3.2 8.0 0.00 0.05 0.00 82 1018.2
20260506062352 12 301 3.2 11.3 0.00 0.05 0.05 81 1018.2
20260506061852 12 302 3.2 9.7 0.00 0.05 0.05 81 1018.0
20260506061350 12 303 4.8 11.3 0.00 0.05 0.05 81 1017.9
20260506060856 12 284 4.8 12.9 0.00 0.05 0.05 81 1017.9
20260506060347 12 275 4.8 12.9 0.00 0.05 0.05 81 1017.8
20260506051336 13 327 4.8 14.5 0.00 0.05 0.05 81 1017.6
20260506050836 13 290 4.8 11.3 0.00 0.05 0.05 81 1017.6
20260506050333 13 267 6.4 14.5 0.00 0.05 0.05 81 1017.6
20260506050218 13 274 6.4 14.5 0.00 0.05 0.05 81 1017.4
20260506044833 13 284 6.4 14.5 0.00 0.05 0.05 81 1017.4
20260506044331 13 290 8.0 12.9 0.00 0.05 0.05 81 1017.4
20260506043832 13 269 6.4 12.9 0.00 0.05 0.05 81 1017.3
20260506043713 13 279 8.0 14.5 0.00 0.05 0.05 81 1017.3
20260506042829 13 285 6.4 14.5 0.00 0.05 0.05 80 1017.3
20260506042331 13 277 6.4 16.1 0.00 0.05 0.05 80 1017.2
20260506042218 13 276 6.4 16.1 0.00 0.05 0.05 80 1017.2
20260506041329 13 278 6.4 12.9 0.00 0.05 0.05 80 1017.2
20260506040830 13 304 8.0 14.5 0.00 0.05 0.05 80 1017.1
20260506040714 13 256 9.7 17.7 0.00 0.05 0.05 80 1017.0
20260506035829 13 279 11.3 19.3 0.00 0.05 0.05 80 1017.0
20260506035339 13 263 11.3 19.3 0.00 0.05 0.05 80 1016.9
20260506034837 13 278 9.7 17.7 0.00 0.05 0.05 80 1016.8
20260506034705 13 278 8.0 17.7 0.00 0.05 0.05 80 1016.8
20260506033829 13 314 11.3 17.7 0.00 0.05 0.05 79 1016.8
20260506033659 13 264 11.3 19.3 0.00 0.05 0.05 79 1016.7
20260506032830 13 260 11.3 20.9 0.00 0.05 0.05 79 1016.7
20260506032329 13 270 12.9 20.9 0.00 0.05 0.05 79 1016.6
20260506032202 13 282 12.9 19.3 0.00 0.05 0.05 79 1016.6
20260506031722 13 271 11.3 19.3 0.00 0.05 0.05 79 1016.6
20260506030831 13 257 9.7 19.3 0.00 0.05 0.05 79 1016.4
20260506030323 13 295 8.0 19.3 0.00 0.05 0.05 79 1016.4
20260506025815 13 290 8.0 17.7 0.00 0.05 0.05 79 1016.3
20260506025309 13 271 6.4 16.1 0.00 0.05 0.05 79 1016.2
20260506024802 13 278 6.4 17.7 0.00 0.05 0.05 78 1016.2
20260506024302 13 302 6.4 17.7 0.00 0.05 0.05 78 1016.1
20260506023803 14 300 8.0 19.3 0.00 0.05 0.05 77 1016.1